Flag Weather past 2 weeks in Chisinau, Moldova

Now
30 °F

Light snow. Mostly cloudy.


Feels Like: 24 °F
Forecast: 28 / 33 °F
Wind: 6 mph from East

Location: Chisinau International Airport

Current Time: Nov 28, 2014 at 7:23:10 PM

Latest Report: Nov 28, 2014 at 7:00 PM


Visibility: 3 mi

Pressure: 30.30 "Hg

Humidity: 80%

Dew point: 25 °F

Location of ChisinauLocation

Historic Weather in Chisinau — Graph

°F

Chisinau temperature yesterday

Maximum temperature yesterday: 32 °F (at 1:30 PM)
Minimum temperature yesterday: 28 °F (at 4:00 AM)
Average temperature yesterday: 30 °F

Past Weeks' High & Low Weather Summary

 TemperatureHumidityPressure
High45 °F (Nov 13, 6:00 PM)93% (Nov 14, 6:30 AM)30.51 "Hg (Nov 14, 6:30 AM)
Low25 °F (Nov 25, 8:00 PM)60% (Nov 22, 10:00 AM)29.92 "Hg (Nov 20, 4:00 AM)
Average35 °F82%30.24 "Hg
* Reported Nov 13 6:00 PM — Nov 28 6:00 PM, Chisinau, Weather by CustomWeather, © 2014

Note: Actual official high and low records may vary slightly from our data, if they occured in-between our weather recording intervals... More about our weather records

Advertising

Chisinau weather history for previous 24 hours

 ConditionsComfort  
Time TempWeatherWind HumidityBarometerVisibility
6:00 PM
Nov 28
32 °FLight snow. Mostly cloudy.5 mph69%30.30 "Hg3 mi
5:30 PM32 °FPassing clouds.5 mph69%30.30 "Hg4 mi
5:00 PM32 °FPassing clouds.5 mph69%30.30 "Hg4 mi
4:30 PM32 °FPassing clouds.3 mph69%30.30 "Hg5 mi
4:00 PM32 °FMostly cloudy.3 mph69%30.30 "Hg5 mi
3:30 PM32 °FOvercast.3 mph69%30.27 "HgN/A
3:00 PM32 °FOvercast.3 mph69%30.27 "HgN/A
2:30 PM32 °FOvercast.5 mph69%30.27 "Hg5 mi
2:00 PM32 °FOvercast.5 mph69%30.30 "Hg5 mi
1:30 PM32 °FMostly cloudy.3 mph69%30.30 "Hg5 mi
1:00 PM32 °FMostly cloudy.3 mph69%30.30 "Hg5 mi
12:30 PM32 °FMostly cloudy.2 mph69%30.30 "Hg5 mi
12:00 PM32 °FPartly sunny.3 mph69%30.30 "HgN/A
11:30 AM32 °FBroken clouds.No wind69%30.30 "HgN/A
11:00 AM30 °FPartly sunny.2 mph75%30.33 "HgN/A
10:30 AM30 °FPartly sunny.3 mph75%30.33 "HgN/A
10:00 AM30 °FPartly sunny.3 mph75%30.33 "Hg5 mi
9:30 AM30 °FBroken clouds.5 mph80%30.33 "Hg4 mi
9:00 AM28 °FBroken clouds.6 mph86%30.33 "Hg4 mi
8:30 AM28 °FIce fog.3 mph86%30.30 "Hg3 mi
8:00 AM27 °FIce fog.3 mph86%30.30 "Hg2 mi
7:30 AM27 °FIce fog.5 mph86%30.30 "Hg2 mi
7:00 AM27 °FIce fog.5 mph86%30.30 "Hg3 mi
6:30 AM28 °FIce fog.3 mph80%30.30 "Hg3 mi
6:00 AM28 °FIce fog.3 mph80%30.30 "Hg3 mi
5:30 AM28 °FIce fog.No wind80%30.30 "Hg3 mi
5:00 AM28 °FIce fog.2 mph80%30.30 "Hg3 mi
4:30 AM28 °FIce fog.No wind86%30.30 "Hg3 mi
4:00 AM28 °FIce fog.2 mph86%30.30 "Hg3 mi
3:30 AM28 °FIce fog.No wind86%30.30 "Hg3 mi
3:00 AM28 °FIce fog.No wind86%30.30 "Hg2 mi
2:30 AM28 °FIce fog.2 mph86%30.30 "Hg2 mi
2:00 AM28 °FIce fog.2 mph86%30.30 "Hg2 mi
1:30 AM28 °FIce fog.3 mph86%30.30 "Hg3 mi
1:00 AM28 °FIce fog.2 mph86%30.30 "Hg3 mi
12:30 AM28 °FIce fog.No wind86%30.30 "Hg2 mi
12:00 AM28 °FIce fog.No wind86%30.30 "Hg3 mi
11:30 PM
Nov 27
30 °FMostly cloudy.No wind80%30.30 "Hg4 mi
11:00 PM30 °FIce fog.No wind80%30.30 "Hg2 mi
10:30 PM30 °FIce fog.No wind80%30.30 "Hg2 mi
10:00 PM30 °FIce fog.No wind80%30.30 "Hg2 mi
9:30 PM30 °FMostly cloudy.No wind80%30.30 "Hg3 mi
9:00 PM30 °FMostly cloudy.2 mph80%30.30 "Hg3 mi
8:30 PM30 °FOvercast.3 mph75%30.30 "Hg3 mi
8:00 PM30 °FLight snow. Mostly cloudy.2 mph75%30.27 "Hg3 mi
7:30 PM30 °FLight snow. Mostly cloudy.2 mph80%30.30 "Hg4 mi
7:00 PM30 °FLight snow. Mostly cloudy.2 mph75%30.30 "Hg3 mi
Weather by CustomWeather, © 2014

See weather overviewHow to use our weather pages